Other Public Products
Issued by NWS Grand Forks, ND

Home | Current Version | Previous Version | Graphics & Text | Print | Product List | Glossary On
Versions: 1 2 3 4 5 6 7 8 9 10 11 12 13 14 15 16 17 18 19 20 21 22 23 24 25 26 27 28 29 30 31 32 33 34 35 36 37 38 39 40 41 42 43 44 45 46 47 48 49 50
000
FPUS83 KFGF 042310
OPUFGF
PRAIRIE TO PINES WEATHER ROUNDUP
NATIONAL WEATHER SERVICE EASTERN NORTH DAKOTA/GRAND FORKS ND
600 PM CDT TUE AUG 04 2015

 **SATELLITE DATA USED TO AUGMENT SKY COVER AT AUTOMATED STATIONS**
 *****  WEATHER ACROSS EASTERN NORTH DAKOTA  *****

CITY           SKY/WX    TMP DP  RH WIND       PRES   REMARKS
GRAND FORKS    SUNNY     76  53  44 N6        30.00R
GRAND FORKS AF SUNNY     76  54  46 N5        30.01R
GRAND CITY NWS   N/A     75 N/A N/A N3          N/A
BUXTON         NOT AVBL
DEVILS LAKE    SUNNY     77  50  38 SE6       30.00S
FARGO          MOSUNNY   80  51  36 NE6       29.99S
WAHPETON ARPT  CLEAR     79  41  25 E7        29.99S
$$

 *****  WEATHER ACROSS CENTRAL AND WESTERN NORTH DAKOTA  *****

CITY           SKY/WX    TMP DP  RH WIND       PRES   REMARKS
JAMESTOWN      SUNNY     78  52  40 SE6       29.99S
BISMARCK       SUNNY     86  55  34 SE8       29.94F
MINOT          MOSUNNY   82  48  30 E12       29.95S
MINOT AFB      MOSUNNY   83  49  30 E14       29.94F
GARRISON         N/A     82  57  42 E12       29.94F
WILLISTON      SUNNY     90  53  28 SE13      29.88F
DICKINSON      MOSUNNY   84  56  38 SE15      29.92F
HETTINGER      PTSUNNY   86  52  30 SE16G23   29.94F
$$

 *****  OTHER OBSERVATIONS NORTHEAST NORTH DAKOTA  *****

CITY           SKY/WX    TMP DP  RH WIND       PRES   REMARKS
WALHALLA       FAIR      73  52  46 MISG      30.02S
LANGDON        FAIR      75  52  43 VRB6      30.03F
CAVALIER       FAIR      73  54  49 N3        30.02S
GRAFTON        FAIR      73  54  49 NE7G14    30.02R
CANDO          NOT AVBL
FORT TOTTEN      N/A     78  51  38 E5        29.95S
ROLLA            N/A     73  50  43 NE3       30.03S
RUGBY          NOT AVBL
 ***** THE ABOVE OBSERVATIONS ARE NON NWS ARE NOT QUALITY
        CONTROLLED AND MAY MIS-REPORT RAIN FOR SNOW...
$$

 *****  OTHER OBSERVATIONS SOUTHEAST NORTH DAKOTA *****

CITY           SKY/WX    TMP DP  RH WIND       PRES   REMARKS
COOPERSTOWN    NOT AVBL
VALLEY CITY    FAIR      77  54  44 E7        30.01R
OAKES            N/A     81  54  39 E7        29.99S
GWINNER        FAIR      81  54  39 SE5       30.00S
SHEYENNE NWR     N/A     81  49  33 E6        29.95S
BUFFALO        NOT AVBL
WYNDMERE         N/A     81  52  36 NE3         N/A
 ***** THE ABOVE OBSERVATIONS ARE NON NWS ARE NOT QUALITY
       CONTROLLED AND MAY MIS-REPORT RAIN FOR SNOW...
$$

  *****  WEATHER ACROSS NORTHERN MINNESOTA  *****

CITY           SKY/WX    TMP DP  RH WIND       PRES   REMARKS
FLAG ISLAND    SUNNY     66  48  52 CALM      30.02S
WARROAD        SUNNY     66  54  63 E7        30.04S
ROSEAU         SUNNY     70  59  68 E7        30.02S
HALLOCK        SUNNY     73  52  46 N3        30.01S
THF RVR FALLS  SUNNY     73  50  43 CALM      30.01S
HALSTAD        NOT AVBL
FOSSTON        SUNNY     79  50  36 N7        30.01S
BAUDETTE       SUNNY     68  52  56 NW9       30.02F
WASKISH        SUNNY     72  52  49 N6        30.03R
CROOKSTON      SUNNY     75  52  43 NE6       30.00S
$$
  *****  WEATHER ACROSS CENTRAL AND WEST MINNESOTA  *****

CITY           SKY/WX    TMP DP  RH WIND       PRES   REMARKS
BEMIDJI        SUNNY     73  51  46 N8        30.01S
PARK RAPIDS    MOSUNNY   77  50  38 N9        30.01R
WADENA         SUNNY     77  48  36 N6        30.00S
DETROIT LAKES  SUNNY     75  50  41 NW7       30.02S
MOORHEAD       SUNNY     75  54  46 NE7       30.00S
FERGUS FALLS   SUNNY     79  50  36 N3        29.98S
ELBOW LAKE     FAIR      77  50  38 CALM      30.00S
MORRIS MN      SUNNY     81  52  36 N3        29.99S
STAPLES        PTSUNNY   79  46  31 NW6       29.99S
WHEATON        SUNNY     75  48  38 CALM      30.01S
$$
  *****  WEATHER ELSEWHERE ACROSS MINNESOTA  *****

CITY           SKY/WX    TMP DP  RH WIND       PRES   REMARKS
DULUTH         MOSUNNY   73  50  44 N9        29.99R
INTRNTL FALLS  CLOUDY    65  49  56 NE6       30.03S
ELY            CLOUDY    63  48  59 NW5       30.03R
CLOQUET        PTSUNNY   73  46  38 N8        29.99R
BRAINERD       SUNNY     77  51  40 N9        29.99S
HIBBING        PTSUNNY   70  50  49 N12       30.00S
ALEXANDRIA     SUNNY     79  49  34 N5        30.02R
SAINT CLOUD    MOSUNNY   80  50  34 VRB7      29.98S
MINNEAPOLIS    MOSUNNY   81  50  33 W9        29.97S
$$

  *****  WEATHER ACROSS SOUTH DAKOTA  *****

CITY           SKY/WX    TMP DP  RH WIND       PRES   REMARKS
SIOUX FALLS    CLOUDY    78  63  59 E9        29.98F
BROOKINGS      PTSUNNY   75  61  60 SE8       30.01F
WATERTOWN      PTSUNNY   79  56  45 S6        30.00S
HURON          PTSUNNY   80  63  55 SE12      29.95F
SISSETON         N/A     80  52  37 NE5       29.98S
ABERDEEN       MOSUNNY   82  56  40 E6        29.97S
MITCHELL       MOSUNNY   81  63  54 SE10      29.95F
PIERRE         PTSUNNY   83  57  41 SE17      29.91F
MOBRIDGE       MOSUNNY   86  60  41 SE15      29.92F
RAPID CITY     PTSUNNY   85  58  39 S14G20    29.94S
$$

  *****  SOME WEATHER IN NEARBY STATES *****

CITY           SKY/WX    TMP DP  RH WIND       PRES   REMARKS
GLASGOW MT     PTSUNNY   77  57  50 NW16      29.85R
GREAT FALLS MT CLOUDY    79  44  28 SE9       29.91F
CHEYENNE WY    PTSUNNY   79  49  34 N18G28    30.11S
SCOTTSBLUFF NE PTSUNNY   69  32  25 SE8       30.00F
OMAHA NE       PTSUNNY   78  68  71 E12       29.95S
DES MOINES IA  PTSUNNY   78  60  53 SE6       29.99R
DAVENPORT IA   MOSUNNY   80  62  54 CALM      29.96S
CHICAGO IL     PTSUNNY   80  51  36 NW8       29.94F
EAU CLAIRE WI  PTSUNNY   79  52  38 NW8       29.96F
LA CROSSE WI   MOSUNNY   81  52  36 NW7       29.96S
$$

  *****  SOME NATIONAL WEATHER *****

CITY           SKY/WX    TMP DP  RH WIND       PRES   REMARKS
LA GUARDIA NY  MOSUNNY   88  51  28 W20G26    29.84R
RALEIGH NC     MOSUNNY   90  71  53 VRB3      29.92F HX  96
ATLANTA GA     MOSUNNY   94  61  33 NW7       29.97F HX  94
NEW ORLEANS LA MOSUNNY   90  75  61 NE12      29.94S HX 100
OKLAHOMA CITY  PTSUNNY   86  72  62 S16G23    29.90S HX  92
ALBUQUERQUE NM MOSUNNY   92  43  18 N12       30.12F
SALT LAKE CITY MOSUNNY   90  46  21 VRB3      30.00F
LOS ANGELES CA MOSUNNY   78  59  51 W16       29.91F
BOISE ID       SUNNY     91  47  21 NW12      29.89F
SEATTLE WA     PTSUNNY   77  48  35 W7        29.98F
$$

*** WEATHER ACROSS MANITOBA...SASKATCHEWAN AND ONTARIO ***
                ***ONTARIO***

CITY           SKY/WX    TMP DP  RH WIND       PRES   REMARKS
GERALDTON      PTSUNNY   63  50  63 NW9       29.95S
THUNDER BAY    PTSUNNY   66  52  59 NW7       29.98S
SIOUX LOOKOUT  MOSUNNY   63  50  63 NW7       30.05S
TORONTO        PTSUNNY   66  59  77 NW9G17    29.87F
BIG TROUT LK   PTSUNNY   61  50  67 NE8       29.99S
PICKLE LAKE    PTSUNNY   61  52  72 W6        30.01S
DRYDEN         CLOUDY    63  50  63 NE3       30.05S
KENORA         PTSUNNY   66  52  59 N3        30.04F
$$
                *** MANITOBA***

CITY           SKY/WX    TMP DP  RH WIND       PRES   REMARKS
BRANDON        CLOUDY    75  54  46 E12       30.01F
DAUPHIN        SUNNY     72  55  56 E8        30.01F
ISLAND LAKE    CLOUDY    59  54  82 VRB2      30.04S
PILOT MOUND      N/A     72  52  49 E3          N/A
THE PAS        PTSUNNY   70  52  52 N5        30.02S
THOMPSON       LGT RAIN  59  50  72 NE6       30.06S
WINNIPEG       PTSUNNY   70  55  60 N6        30.04S
LYNN LAKE      CLOUDY    63  52  67 E6        30.06S
CHURCHILL      CLOUDY    48  45  87 N9        30.11S
GILLAM           N/A     57  50  77 N9        30.07R
$$
                ***SASKATCHEWAN***

CITY           SKY/WX    TMP DP  RH WIND       PRES   REMARKS
ESTEVAN        PTSUNNY   82  52  34 E14G21    29.94F
KINDERSLEY     PTSUNNY   77  57  50 NW10      29.79F
LLOYDMINSTER   CLOUDY    70  57  64 E15G22    29.82F
PRINCE ALBERT  CLOUDY    68  59  73 E13       29.96F
REGINA         PTSUNNY   84  54  34 E17G25    29.89F


USA.gov is the U.S. government's official web portal to all federal, state and local government web resources and services.